Location: Gettysburg
(39.8310°N, 77.2310°W)
Time: 15:18:52
(UTC-04:00)

ATLAS 2AS CENTAUR R/B - Visible Passes

Search period start: 21 April 2018 00:00
Search period end: 01 May 2018 00:00
Orbit: 909 x 1302 km, 63.7° (Epoch: 18 April)

Date Brightness Start Highest point End Pass type
(mag) Time Alt. Az. Time Alt. Az. Time Alt. Az.
21 Apr 3.2 20:37:56 10° NNW 20:45:46 60° NE 20:52:15 13° SE visible
21 Apr 4.2 22:29:46 10° NW 22:36:15 30° WSW 22:39:43 21° SSW visible
22 Apr 3.6 21:44:22 10° NW 21:51:47 48° WSW 21:56:47 19° S visible
23 Apr 3.1 20:59:17 10° NW 21:07:08 75° WSW 21:13:55 12° SSE visible
23 Apr 5.1 22:53:38 10° WNW 22:56:40 13° W 22:59:37 10° SW visible
24 Apr 3.0 20:14:22 10° NNW 20:22:19 75° NE 20:29:33 10° SE visible
24 Apr 4.7 22:06:47 10° WNW 22:12:26 23° WSW 22:17:44 10° SSW visible
25 Apr 4.1 21:21:07 10° NW 21:28:03 37° WSW 21:34:28 10° S visible
26 Apr 3.5 20:35:52 10° NW 20:43:30 58° WSW 20:50:29 10° SSE visible
27 Apr 5.1 21:44:10 10° WNW 21:48:33 17° WSW 21:52:45 10° SW visible
28 Apr 4.7 20:57:59 10° NW 21:04:15 28° WSW 21:10:06 10° SSW visible
30 Apr 5.4 21:22:30 10° W 21:24:37 11° W 21:26:42 10° WSW visible
